| time (UTC) | temp C | wind direction | speed KPH | gust KPH | rain 1hr cm | rain 24hr cm | rain mn cm | humidity % | barometer mb |
| 20260508013323 | 8 | 207 | 0.0 | 0.0 | 0.00 | 0.00 | 0.00 | 86 | 1016.8 |
| 20260508012820 | 8 | 207 | 0.0 | 0.0 | 0.00 | 0.00 | 0.00 | 86 | 1016.8 |
| 20260508012317 | 8 | 11 | 1.6 | 1.6 | 0.00 | 0.00 | 0.00 | 86 | 1016.9 |
| 20260508011815 | 8 | 194 | 0.0 | 0.0 | 0.00 | 0.00 | 0.00 | 86 | 1017.0 |
| 20260508011312 | 8 | 194 | 0.0 | 0.0 | 0.00 | 0.00 | 0.00 | 86 | 1016.9 |
| 20260508010809 | 8 | 193 | 0.0 | 0.0 | 0.00 | 0.00 | 0.00 | 86 | 1016.7 |
| 20260508010307 | 8 | 193 | 0.0 | 0.0 | 0.00 | 0.00 | 0.00 | 86 | 1016.8 |
| 20260508005804 | 8 | 193 | 0.0 | 0.0 | 0.00 | 0.00 | 0.00 | 86 | 1016.9 |
| 20260508005301 | 8 | 195 | 0.0 | 0.0 | 0.00 | 0.00 | 0.00 | 86 | 1016.9 |
| 20260508004756 | 8 | 197 | 0.0 | 0.0 | 0.00 | 0.00 | 0.00 | 85 | 1016.8 |
| 20260508004253 | 8 | 197 | 0.0 | 0.0 | 0.00 | 0.00 | 0.00 | 85 | 1016.8 |
| 20260508003749 | 8 | 184 | 0.0 | 1.6 | 0.00 | 0.00 | 0.00 | 85 | 1017.0 |
| 20260508003247 | 8 | 154 | 0.0 | 1.6 | 0.00 | 0.00 | 0.00 | 85 | 1016.9 |
| 20260508002743 | 8 | 188 | 0.0 | 0.0 | 0.00 | 0.00 | 0.00 | 85 | 1017.1 |
| 20260508002241 | 8 | 183 | 0.0 | 0.0 | 0.00 | 0.00 | 0.00 | 85 | 1017.1 |
| 20260508001736 | 8 | 168 | 1.6 | 1.6 | 0.00 | 0.00 | 0.00 | 85 | 1017.1 |
| 20260508001232 | 8 | 194 | 0.0 | 0.0 | 0.00 | 0.00 | 0.00 | 85 | 1017.1 |
| 20260508000729 | 8 | 172 | 1.6 | 1.6 | 0.00 | 0.00 | 0.00 | 85 | 1017.3 |
| 20260508000227 | 8 | 170 | 3.2 | 3.2 | 0.00 | 0.00 | 0.00 | 85 | 1016.8 |
| 20260507235722 | 8 | 172 | 0.0 | 1.6 | 0.00 | 0.00 | 0.00 | 85 | 1017.1 |
| 20260507235220 | 8 | 167 | 1.6 | 1.6 | 0.00 | 0.00 | 0.00 | 85 | 1017.2 |
| 20260507234717 | 8 | 153 | 3.2 | 3.2 | 0.00 | 0.00 | 0.00 | 85 | 1017.3 |
| 20260507234213 | 8 | 153 | 1.6 | 1.6 | 0.00 | 0.00 | 0.00 | 85 | 1017.3 |
| 20260507233710 | 8 | 188 | 0.0 | 0.0 | 0.00 | 0.00 | 0.00 | 85 | 1017.1 |
| 20260507233208 | 8 | 146 | 1.6 | 3.2 | 0.00 | 0.00 | 0.00 | 85 | 1017.3 |
| 20260507232705 | 8 | 181 | 0.0 | 1.6 | 0.00 | 0.00 | 0.00 | 84 | 1017.3 |
| 20260507232202 | 8 | 166 | 1.6 | 1.6 | 0.00 | 0.00 | 0.00 | 84 | 1016.9 |
| 20260507231658 | 8 | 187 | 0.0 | 0.0 | 0.00 | 0.00 | 0.00 | 84 | 1017.6 |
| 20260507231155 | 8 | 190 | 0.0 | 0.0 | 0.00 | 0.00 | 0.00 | 84 | 1017.2 |
| 20260507230652 | 8 | 165 | 0.0 | 0.0 | 0.00 | 0.00 | 0.00 | 84 | 1017.4 |
| 20260507230149 | 9 | 147 | 1.6 | 1.6 | 0.00 | 0.00 | 0.00 | 84 | 1017.4 |
| 20260507225649 | 9 | 191 | 0.0 | 0.0 | 0.00 | 0.00 | 0.00 | 84 | 1017.6 |
| 20260507225146 | 9 | 166 | 0.0 | 0.0 | 0.00 | 0.00 | 0.00 | 84 | 1017.4 |
| 20260507224641 | 9 | 200 | 0.0 | 0.0 | 0.00 | 0.00 | 0.00 | 84 | 1017.6 |
| 20260507224138 | 9 | 191 | 0.0 | 0.0 | 0.00 | 0.00 | 0.00 | 84 | 1017.2 |
| 20260507223634 | 9 | 144 | 1.6 | 3.2 | 0.00 | 0.00 | 0.00 | 84 | 1017.4 |
| 20260507223131 | 9 | 181 | 0.0 | 0.0 | 0.00 | 0.00 | 0.00 | 83 | 1017.5 |
| 20260507222628 | 9 | 185 | 0.0 | 0.0 | 0.00 | 0.00 | 0.00 | 83 | 1017.4 |
| 20260507222124 | 9 | 187 | 0.0 | 0.0 | 0.00 | 0.00 | 0.00 | 83 | 1017.3 |
| 20260507221621 | 9 | 183 | 1.6 | 1.6 | 0.00 | 0.00 | 0.00 | 83 | 1017.6 |
| 20260507221117 | 9 | 179 | 0.0 | 1.6 | 0.00 | 0.00 | 0.00 | 83 | 1017.3 |
| 20260507220615 | 9 | 183 | 0.0 | 0.0 | 0.00 | 0.00 | 0.00 | 83 | 1017.4 |
| 20260507220112 | 9 | 176 | 1.6 | 1.6 | 0.00 | 0.00 | 0.00 | 83 | 1017.4 |
| 20260507215608 | 9 | 155 | 0.0 | 1.6 | 0.00 | 0.00 | 0.00 | 83 | 1017.6 |
| 20260507215106 | 9 | 192 | 0.0 | 0.0 | 0.00 | 0.00 | 0.00 | 82 | 1017.6 |
| 20260507214603 | 9 | 203 | 0.0 | 0.0 | 0.00 | 0.00 | 0.00 | 83 | 1017.5 |
| 20260507214059 | 9 | 188 | 0.0 | 0.0 | 0.00 | 0.00 | 0.00 | 82 | 1017.9 |
| 20260507213555 | 9 | 193 | 0.0 | 0.0 | 0.00 | 0.00 | 0.00 | 82 | 1017.5 |
| 20260507213053 | 9 | 183 | 1.6 | 1.6 | 0.00 | 0.00 | 0.00 | 82 | 1017.6 |
| 20260507212548 | 9 | 175 | 0.0 | 1.6 | 0.00 | 0.00 | 0.00 | 82 | 1017.7 |
| 20260507212046 | 9 | 131 | 1.6 | 1.6 | 0.00 | 0.00 | 0.00 | 82 | 1017.6 |
| 20260507211542 | 9 | 175 | 1.6 | 1.6 | 0.00 | 0.00 | 0.00 | 81 | 1017.6 |
| 20260507211038 | 9 | 185 | 0.0 | 0.0 | 0.00 | 0.00 | 0.00 | 81 | 1017.5 |
| 20260507210536 | 9 | 147 | 1.6 | 1.6 | 0.00 | 0.00 | 0.00 | 81 | 1017.5 |
| 20260507210032 | 9 | 173 | 1.6 | 1.6 | 0.00 | 0.00 | 0.00 | 81 | 1017.2 |
| 20260507205529 | 10 | 157 | 1.6 | 3.2 | 0.00 | 0.00 | 0.00 | 81 | 1017.4 |
| 20260507205025 | 10 | 163 | 0.0 | 1.6 | 0.00 | 0.00 | 0.00 | 81 | 1017.3 |
| 20260507204521 | 10 | 191 | 0.0 | 0.0 | 0.00 | 0.00 | 0.00 | 81 | 1017.5 |
| 20260507204020 | 10 | 172 | 1.6 | 1.6 | 0.00 | 0.00 | 0.00 | 80 | 1017.3 |
| 20260507203517 | 10 | 163 | 3.2 | 3.2 | 0.00 | 0.00 | 0.00 | 80 | 1017.3 |
| 20260507203014 | 10 | 146 | 3.2 | 4.8 | 0.00 | 0.00 | 0.00 | 80 | 1017.2 |
| 20260507202510 | 10 | 183 | 3.2 | 3.2 | 0.00 | 0.00 | 0.00 | 80 | 1016.8 |
| 20260507202006 | 10 | 134 | 1.6 | 3.2 | 0.00 | 0.00 | 0.00 | 80 | 1017.2 |
| 20260507201502 | 10 | 144 | 4.8 | 4.8 | 0.00 | 0.00 | 0.00 | 80 | 1017.1 |
| 20260507200958 | 10 | 167 | 3.2 | 3.2 | 0.00 | 0.00 | 0.00 | 79 | 1017.0 |
| 20260507200454 | 10 | 156 | 3.2 | 3.2 | 0.00 | 0.00 | 0.00 | 79 | 1017.0 |
| 20260507195949 | 10 | 130 | 1.6 | 3.2 | 0.00 | 0.00 | 0.00 | 79 | 1016.9 |
| 20260507195448 | 10 | 78 | 1.6 | 1.6 | 0.00 | 0.00 | 0.00 | 79 | 1017.0 |
| 20260507194945 | 10 | 161 | 4.8 | 4.8 | 0.00 | 0.00 | 0.00 | 79 | 1016.8 |
| 20260507194441 | 10 | 137 | 1.6 | 3.2 | 0.00 | 0.00 | 0.00 | 78 | 1016.9 |
| 20260507193937 | 10 | 213 | 3.2 | 3.2 | 0.00 | 0.00 | 0.00 | 78 | 1016.8 |
| 20260507193434 | 10 | 166 | 1.6 | 1.6 | 0.00 | 0.00 | 0.00 | 77 | 1016.8 |
| 20260507192931 | 10 | 157 | 4.8 | 8.0 | 0.00 | 0.00 | 0.00 | 77 | 1016.9 |
| 20260507192427 | 10 | 182 | 0.0 | 0.0 | 0.00 | 0.00 | 0.00 | 77 | 1016.7 |
| 20260507191925 | 10 | 130 | 3.2 | 3.2 | 0.00 | 0.00 | 0.00 | 77 | 1016.8 |
| 20260507191420 | 10 | 147 | 4.8 | 8.0 | 0.00 | 0.00 | 0.00 | 76 | 1016.9 |
| 20260507190917 | 10 | 113 | 4.8 | 8.0 | 0.00 | 0.00 | 0.00 | 76 | 1016.8 |
| 20260507190415 | 10 | 119 | 3.2 | 4.8 | 0.00 | 0.00 | 0.00 | 76 | 1016.9 |
| 20260507185914 | 10 | 150 | 0.0 | 1.6 | 0.00 | 0.00 | 0.00 | 76 | 1016.7 |
| 20260507185411 | 10 | 137 | 4.8 | 9.7 | 0.00 | 0.00 | 0.00 | 75 | 1016.9 |
| 20260507184907 | 10 | 108 | 9.7 | 11.3 | 0.00 | 0.00 | 0.00 | 75 | 1016.9 |
| 20260507184405 | 10 | 153 | 6.4 | 8.0 | 0.00 | 0.00 | 0.00 | 74 | 1016.7 |
| 20260507183902 | 10 | 178 | 1.6 | 1.6 | 0.00 | 0.00 | 0.00 | 74 | 1016.8 |
| 20260507183359 | 10 | 147 | 0.0 | 1.6 | 0.00 | 0.00 | 0.00 | 74 | 1016.8 |
| 20260507182857 | 10 | 98 | 6.4 | 9.7 | 0.00 | 0.00 | 0.00 | 73 | 1016.6 |
| 20260507182352 | 10 | 144 | 4.8 | 9.7 | 0.00 | 0.00 | 0.00 | 73 | 1016.5 |
| 20260507181849 | 10 | 145 | 4.8 | 8.0 | 0.00 | 0.00 | 0.00 | 73 | 1016.6 |
| 20260507181344 | 10 | 153 | 3.2 | 4.8 | 0.00 | 0.00 | 0.00 | 73 | 1016.5 |
| 20260507180842 | 11 | 144 | 3.2 | 4.8 | 0.00 | 0.00 | 0.00 | 72 | 1016.3 |
| 20260507180338 | 11 | 76 | 1.6 | 1.6 | 0.00 | 0.00 | 0.00 | 72 | 1016.4 |
| 20260507175834 | 11 | 123 | 1.6 | 1.6 | 0.00 | 0.00 | 0.00 | 72 | 1016.5 |
| 20260507175331 | 11 | 176 | 3.2 | 3.2 | 0.00 | 0.00 | 0.00 | 72 | 1016.8 |
| 20260507174829 | 11 | 138 | 3.2 | 4.8 | 0.00 | 0.00 | 0.00 | 72 | 1016.6 |
| 20260507174326 | 11 | 129 | 3.2 | 4.8 | 0.00 | 0.00 | 0.00 | 71 | 1016.4 |
| 20260507173823 | 11 | 139 | 1.6 | 3.2 | 0.00 | 0.00 | 0.00 | 71 | 1016.6 |
| 20260507173320 | 11 | 124 | 0.0 | 1.6 | 0.00 | 0.00 | 0.00 | 71 | 1016.5 |
| 20260507172817 | 11 | 144 | 4.8 | 8.0 | 0.00 | 0.00 | 0.00 | 71 | 1016.6 |
| 20260507172314 | 11 | 172 | 4.8 | 8.0 | 0.00 | 0.00 | 0.00 | 70 | 1016.7 |
| 20260507171809 | 11 | 168 | 1.6 | 1.6 | 0.00 | 0.00 | 0.00 | 70 | 1016.8 |
| 20260507171307 | 11 | 127 | 8.0 | 11.3 | 0.00 | 0.00 | 0.00 | 70 | 1016.5 |
| 20260507170803 | 11 | 191 | 3.2 | 3.2 | 0.00 | 0.00 | 0.00 | 70 | 1016.4 |
| 20260507170300 | 11 | 93 | 4.8 | 8.0 | 0.00 | 0.00 | 0.00 | 70 | 1016.6 |
| 20260507165756 | 11 | 185 | 0.0 | 0.0 | 0.00 | 0.00 | 0.00 | 69 | 1016.3 |
| 20260507165252 | 11 | 131 | 8.0 | 9.7 | 0.00 | 0.00 | 0.00 | 69 | 1016.6 |
| 20260507164748 | 11 | 173 | 6.4 | 8.0 | 0.00 | 0.00 | 0.00 | 68 | 1016.4 |
| 20260507164245 | 11 | 56 | 6.4 | 11.3 | 0.00 | 0.00 | 0.00 | 68 | 1016.3 |
| 20260507163742 | 11 | 171 | 3.2 | 4.8 | 0.00 | 0.00 | 0.00 | 68 | 1016.5 |
| 20260507163240 | 12 | 140 | 3.2 | 8.0 | 0.00 | 0.00 | 0.00 | 68 | 1016.5 |
| 20260507162736 | 12 | 192 | 0.0 | 1.6 | 0.00 | 0.00 | 0.00 | 68 | 1016.5 |
| 20260507162232 | 12 | 151 | 4.8 | 9.7 | 0.00 | 0.00 | 0.00 | 67 | 1016.6 |
| 20260507161729 | 12 | 159 | 0.0 | 1.6 | 0.00 | 0.00 | 0.00 | 67 | 1016.5 |
| 20260507161225 | 12 | 162 | 3.2 | 4.8 | 0.00 | 0.00 | 0.00 | 66 | 1016.4 |
| 20260507160721 | 12 | 139 | 1.6 | 1.6 | 0.00 | 0.00 | 0.00 | 66 | 1016.3 |
| 20260507160218 | 12 | 156 | 4.8 | 4.8 | 0.00 | 0.00 | 0.00 | 66 | 1016.4 |
| 20260507155714 | 12 | 114 | 4.8 | 9.7 | 0.00 | 0.00 | 0.00 | 66 | 1016.4 |
| 20260507155210 | 12 | 158 | 8.0 | 11.3 | 0.00 | 0.00 | 0.00 | 65 | 1016.6 |
| 20260507154707 | 12 | 117 | 8.0 | 12.9 | 0.00 | 0.00 | 0.00 | 65 | 1016.4 |
| 20260507154205 | 12 | 110 | 6.4 | 9.7 | 0.00 | 0.00 | 0.00 | 65 | 1016.5 |
| 20260507153701 | 12 | 145 | 4.8 | 9.7 | 0.00 | 0.00 | 0.00 | 66 | 1016.6 |
| 20260507153157 | 12 | 180 | 3.2 | 4.8 | 0.00 | 0.00 | 0.00 | 65 | 1016.4 |
| 20260507152654 | 12 | 110 | 4.8 | 11.3 | 0.00 | 0.00 | 0.00 | 65 | 1016.4 |
| 20260507152150 | 12 | 139 | 4.8 | 4.8 | 0.00 | 0.00 | 0.00 | 65 | 1016.4 |
| 20260507151646 | 12 | 162 | 3.2 | 3.2 | 0.00 | 0.00 | 0.00 | 64 | 1016.5 |
| 20260507151143 | 12 | 130 | 6.4 | 8.0 | 0.00 | 0.00 | 0.00 | 64 | 1016.5 |
| 20260507150640 | 12 | 112 | 3.2 | 4.8 | 0.00 | 0.00 | 0.00 | 64 | 1016.4 |
| 20260507150137 | 12 | 175 | 1.6 | 1.6 | 0.00 | 0.00 | 0.00 | 64 | 1016.5 |
| 20260507145632 | 12 | 143 | 8.0 | 11.3 | 0.00 | 0.00 | 0.00 | 63 | 1016.5 |
| 20260507145130 | 12 | 62 | 4.8 | 9.7 | 0.00 | 0.00 | 0.00 | 63 | 1016.6 |
| 20260507144626 | 12 | 131 | 1.6 | 3.2 | 0.00 | 0.00 | 0.00 | 63 | 1016.4 |
| 20260507144124 | 12 | 144 | 3.2 | 8.0 | 0.00 | 0.00 | 0.00 | 63 | 1016.5 |
| 20260507143620 | 12 | 148 | 3.2 | 8.0 | 0.00 | 0.00 | 0.00 | 63 | 1016.6 |
| 20260507143118 | 13 | 131 | 4.8 | 4.8 | 0.00 | 0.00 | 0.00 | 62 | 1016.6 |
| 20260507142613 | 13 | 167 | 4.8 | 8.0 | 0.00 | 0.00 | 0.00 | 62 | 1016.6 |
| 20260507142110 | 13 | 102 | 1.6 | 3.2 | 0.00 | 0.00 | 0.00 | 61 | 1016.5 |
| 20260507141607 | 13 | 131 | 4.8 | 8.0 | 0.00 | 0.00 | 0.00 | 61 | 1016.4 |
| 20260507141103 | 13 | 197 | 1.6 | 1.6 | 0.00 | 0.00 | 0.00 | 61 | 1016.7 |
| 20260507140600 | 13 | 131 | 3.2 | 4.8 | 0.00 | 0.00 | 0.00 | 62 | 1016.5 |
| 20260507140057 | 13 | 328 | 4.8 | 8.0 | 0.00 | 0.00 | 0.00 | 62 | 1016.7 |
| 20260507135554 | 13 | 156 | 8.0 | 12.9 | 0.00 | 0.00 | 0.00 | 62 | 1016.7 |
| 20260507135052 | 13 | 155 | 6.4 | 8.0 | 0.00 | 0.00 | 0.00 | 62 | 1016.7 |
| 20260507134548 | 13 | 164 | 9.7 | 11.3 | 0.00 | 0.00 | 0.00 | 62 | 1016.6 |
| 20260507134044 | 13 | 158 | 3.2 | 4.8 | 0.00 | 0.00 | 0.00 | 62 | 1016.6 |
| 20260507133540 | 13 | 151 | 4.8 | 8.0 | 0.00 | 0.00 | 0.00 | 61 | 1016.8 |
| 20260507133038 | 13 | 221 | 3.2 | 4.8 | 0.00 | 0.00 | 0.00 | 62 | 1016.8 |
| 20260507132534 | 14 | 145 | 4.8 | 8.0 | 0.00 | 0.00 | 0.00 | 59 | 1016.8 |
| 20260507132031 | 14 | 164 | 9.7 | 12.9 | 0.00 | 0.00 | 0.00 | 57 | 1016.9 |
| 20260507131528 | 15 | 180 | 1.6 | 3.2 | 0.00 | 0.00 | 0.00 | 55 | 1016.7 |
| 20260507131025 | 15 | 88 | 4.8 | 4.8 | 0.00 | 0.00 | 0.00 | 56 | 1016.7 |
| 20260507130522 | 14 | 32 | 1.6 | 3.2 | 0.00 | 0.00 | 0.00 | 56 | 1016.8 |
| 20260507130020 | 14 | 55 | 4.8 | 4.8 | 0.00 | 0.00 | 0.00 | 58 | 1016.8 |
| 20260507125518 | 14 | 91 | 1.6 | 1.6 | 0.00 | 0.00 | 0.00 | 57 | 1016.7 |
| 20260507125015 | 14 | 148 | 1.6 | 3.2 | 0.00 | 0.00 | 0.00 | 58 | 1016.8 |
| 20260507124512 | 13 | 208 | 0.0 | 0.0 | 0.00 | 0.00 | 0.00 | 59 | 1016.8 |
| 20260507124010 | 13 | 105 | 3.2 | 4.8 | 0.00 | 0.00 | 0.00 | 60 | 1016.7 |
| 20260507123507 | 13 | 194 | 1.6 | 1.6 | 0.00 | 0.00 | 0.00 | 61 | 1016.8 |
| 20260507123004 | 13 | 162 | 4.8 | 4.8 | 0.00 | 0.00 | 0.00 | 59 | 1016.9 |
| 20260507122459 | 13 | 282 | 1.6 | 1.6 | 0.00 | 0.00 | 0.00 | 58 | 1016.9 |
| 20260507121955 | 14 | 221 | 1.6 | 1.6 | 0.00 | 0.00 | 0.00 | 56 | 1017.0 |
| 20260507121451 | 14 | 173 | 1.6 | 3.2 | 0.00 | 0.00 | 0.00 | 57 | 1016.9 |
| 20260507120947 | 14 | 243 | 1.6 | 1.6 | 0.00 | 0.00 | 0.00 | 57 | 1016.9 |
| 20260507120443 | 14 | 107 | 3.2 | 3.2 | 0.00 | 0.00 | 0.00 | 57 | 1016.9 |
| 20260507115940 | 15 | 135 | 1.6 | 3.2 | 0.00 | 0.00 | 0.00 | 57 | 1016.9 |
| 20260507115436 | 13 | 268 | 1.6 | 1.6 | 0.00 | 0.00 | 0.00 | 60 | 1017.0 |
| 20260507114933 | 13 | 189 | 0.0 | 1.6 | 0.00 | 0.00 | 0.00 | 62 | 1017.2 |
| 20260507114429 | 12 | 259 | 0.0 | 0.0 | 0.00 | 0.00 | 0.00 | 63 | 1017.3 |
| 20260507113926 | 11 | 213 | 0.0 | 0.0 | 0.00 | 0.00 | 0.00 | 65 | 1017.1 |
| 20260507113423 | 13 | 149 | 1.6 | 1.6 | 0.00 | 0.00 | 0.00 | 63 | 1017.2 |
| 20260507112921 | 12 | 151 | 3.2 | 3.2 | 0.00 | 0.00 | 0.00 | 63 | 1017.1 |
| 20260507112418 | 12 | 225 | 0.0 | 1.6 | 0.00 | 0.00 | 0.00 | 64 | 1017.2 |
| 20260507111915 | 12 | 254 | 1.6 | 3.2 | 0.00 | 0.00 | 0.00 | 63 | 1017.1 |
| 20260507111412 | 12 | 135 | 0.0 | 1.6 | 0.00 | 0.00 | 0.00 | 65 | 1017.3 |
| 20260507110908 | 12 | 102 | 1.6 | 3.2 | 0.00 | 0.00 | 0.00 | 66 | 1017.3 |
| 20260507110404 | 12 | 179 | 0.0 | 1.6 | 0.00 | 0.00 | 0.00 | 66 | 1017.2 |
| 20260507105901 | 11 | 196 | 0.0 | 0.0 | 0.00 | 0.00 | 0.00 | 67 | 1017.3 |
| 20260507105358 | 11 | 176 | 0.0 | 1.6 | 0.00 | 0.00 | 0.00 | 67 | 1017.2 |
| 20260507104855 | 11 | 164 | 3.2 | 3.2 | 0.00 | 0.00 | 0.00 | 66 | 1017.3 |
| 20260507104351 | 11 | 214 | 0.0 | 0.0 | 0.00 | 0.00 | 0.00 | 66 | 1017.4 |
| 20260507103847 | 11 | 193 | 0.0 | 1.6 | 0.00 | 0.00 | 0.00 | 67 | 1017.3 |
| 20260507103343 | 11 | 82 | 3.2 | 4.8 | 0.00 | 0.00 | 0.00 | 67 | 1017.4 |
| 20260507100329 | 11 | 176 | 3.2 | 3.2 | 0.00 | 0.00 | 0.00 | 67 | 1017.3 |
| 20260507095827 | 11 | 176 | 3.2 | 3.2 | 0.00 | 0.00 | 0.00 | 67 | 1017.3 |
| 20260507095323 | 11 | 176 | 3.2 | 3.2 | 0.00 | 0.00 | 0.00 | 67 | 1017.3 |
| 20260507094821 | 11 | 266 | 0.0 | 0.0 | 0.00 | 0.00 | 0.00 | 66 | 1017.3 |
| 20260507094317 | 11 | 1 | 0.0 | 0.0 | 0.00 | 0.00 | 0.00 | 65 | 1017.1 |
| 20260507093814 | 11 | 166 | 1.6 | 1.6 | 0.00 | 0.00 | 0.00 | 64 | 1017.1 |
| 20260507093312 | 11 | 120 | 1.6 | 3.2 | 0.00 | 0.00 | 0.00 | 64 | 1017.0 |
| 20260507092810 | 11 | 49 | 4.8 | 8.0 | 0.00 | 0.00 | 0.00 | 64 | 1017.2 |
| 20260507092307 | 11 | 156 | 3.2 | 3.2 | 0.00 | 0.00 | 0.00 | 63 | 1017.1 |
| 20260507091803 | 11 | 222 | 0.0 | 1.6 | 0.00 | 0.00 | 0.00 | 64 | 1017.1 |
| 20260507091259 | 11 | 148 | 3.2 | 4.8 | 0.00 | 0.00 | 0.00 | 64 | 1017.2 |
| 20260507090759 | 11 | 133 | 6.4 | 8.0 | 0.00 | 0.00 | 0.00 | 64 | 1017.2 |
| 20260507090256 | 11 | 167 | 0.0 | 0.0 | 0.00 | 0.00 | 0.00 | 64 | 1017.0 |
| 20260507085754 | 11 | 164 | 1.6 | 1.6 | 0.00 | 0.00 | 0.00 | 64 | 1017.2 |
| 20260507085250 | 11 | 195 | 0.0 | 0.0 | 0.00 | 0.00 | 0.00 | 64 | 1017.2 |
| 20260507084748 | 11 | 195 | 1.6 | 1.6 | 0.00 | 0.00 | 0.00 | 66 | 1017.1 |
| 20260507084244 | 11 | 86 | 1.6 | 1.6 | 0.00 | 0.00 | 0.00 | 65 | 1017.0 |
| 20260507083741 | 11 | 217 | 0.0 | 1.6 | 0.00 | 0.00 | 0.00 | 65 | 1017.1 |
| 20260507083238 | 10 | 87 | 1.6 | 1.6 | 0.00 | 0.00 | 0.00 | 65 | 1017.1 |
| 20260507082734 | 11 | 174 | 3.2 | 3.2 | 0.00 | 0.00 | 0.00 | 66 | 1017.1 |
| 20260507082230 | 11 | 187 | 0.0 | 0.0 | 0.00 | 0.00 | 0.00 | 66 | 1017.0 |
| 20260507081727 | 11 | 185 | 3.2 | 3.2 | 0.00 | 0.00 | 0.00 | 67 | 1016.9 |
| 20260507081223 | 10 | 241 | 1.6 | 3.2 | 0.00 | 0.00 | 0.00 | 68 | 1016.8 |
| 20260507080720 | 10 | 132 | 3.2 | 3.2 | 0.00 | 0.00 | 0.00 | 70 | 1016.8 |
| 20260507080216 | 10 | 134 | 3.2 | 3.2 | 0.00 | 0.00 | 0.00 | 69 | 1017.0 |
| 20260507075711 | 10 | 187 | 0.0 | 1.6 | 0.00 | 0.00 | 0.00 | 70 | 1016.7 |
| 20260507075208 | 10 | 175 | 0.0 | 1.6 | 0.00 | 0.00 | 0.00 | 71 | 1016.8 |
| 20260507074704 | 10 | 171 | 0.0 | 0.0 | 0.00 | 0.00 | 0.00 | 73 | 1016.7 |
| 20260507074203 | 9 | 181 | 1.6 | 1.6 | 0.00 | 0.00 | 0.00 | 74 | 1016.8 |
| 20260507073659 | 9 | 143 | 3.2 | 3.2 | 0.00 | 0.00 | 0.00 | 74 | 1016.8 |
| 20260507073155 | 9 | 186 | 0.0 | 0.0 | 0.00 | 0.00 | 0.00 | 75 | 1016.5 |
| 20260507072653 | 9 | 82 | 1.6 | 3.2 | 0.00 | 0.00 | 0.00 | 75 | 1016.6 |
| 20260507072150 | 9 | 139 | 0.0 | 1.6 | 0.00 | 0.00 | 0.00 | 74 | 1016.5 |
| 20260507071648 | 9 | 168 | 0.0 | 1.6 | 0.00 | 0.00 | 0.00 | 74 | 1016.6 |
| 20260507071144 | 9 | 65 | 1.6 | 1.6 | 0.00 | 0.00 | 0.00 | 75 | 1016.5 |
| 20260507070641 | 8 | 148 | 0.0 | 1.6 | 0.00 | 0.00 | 0.00 | 75 | 1016.5 |
| 20260507070138 | 8 | 174 | 0.0 | 0.0 | 0.00 | 0.00 | 0.00 | 75 | 1016.8 |
| 20260507065634 | 8 | 184 | 0.0 | 0.0 | 0.00 | 0.00 | 0.00 | 75 | 1016.6 |
| 20260507065131 | 8 | 201 | 1.6 | 1.6 | 0.00 | 0.00 | 0.00 | 75 | 1016.4 |
| 20260507064629 | 9 | 129 | 1.6 | 3.2 | 0.00 | 0.00 | 0.00 | 75 | 1016.6 |
| 20260507064127 | 9 | 160 | 0.0 | 0.0 | 0.00 | 0.00 | 0.00 | 76 | 1016.7 |
| 20260507063624 | 9 | 154 | 0.0 | 0.0 | 0.00 | 0.00 | 0.00 | 76 | 1016.6 |
| 20260507063121 | 8 | 196 | 0.0 | 0.0 | 0.00 | 0.00 | 0.00 | 76 | 1016.3 |
| 20260507062618 | 8 | 197 | 0.0 | 0.0 | 0.00 | 0.00 | 0.00 | 76 | 1016.5 |
| 20260507062116 | 8 | 204 | 0.0 | 0.0 | 0.00 | 0.00 | 0.00 | 77 | 1016.3 |
| 20260507061613 | 8 | 209 | 0.0 | 0.0 | 0.00 | 0.00 | 0.00 | 77 | 1016.5 |
| 20260507061111 | 8 | 171 | 1.6 | 1.6 | 0.00 | 0.00 | 0.00 | 77 | 1016.6 |
| 20260507060609 | 8 | 182 | 0.0 | 0.0 | 0.00 | 0.00 | 0.00 | 77 | 1016.3 |
| 20260507060105 | 8 | 84 | 1.6 | 1.6 | 0.00 | 0.00 | 0.00 | 79 | 1016.3 |
| 20260507055600 | 8 | 125 | 1.6 | 1.6 | 0.00 | 0.00 | 0.00 | 80 | 1016.2 |
| 20260507055057 | 8 | 196 | 0.0 | 0.0 | 0.00 | 0.00 | 0.00 | 81 | 1016.2 |
| 20260507054553 | 8 | 166 | 1.6 | 3.2 | 0.00 | 0.00 | 0.00 | 82 | 1016.0 |
| 20260507054050 | 7 | 189 | 0.0 | 0.0 | 0.00 | 0.00 | 0.00 | 83 | 1016.2 |
| 20260507053548 | 7 | 196 | 0.0 | 0.0 | 0.00 | 0.00 | 0.00 | 83 | 1016.1 |
| 20260507053046 | 7 | 160 | 1.6 | 1.6 | 0.00 | 0.00 | 0.00 | 84 | 1016.0 |
| 20260507052544 | 7 | 197 | 0.0 | 0.0 | 0.00 | 0.00 | 0.00 | 84 | 1016.2 |
| 20260507052040 | 7 | 192 | 0.0 | 0.0 | 0.00 | 0.00 | 0.00 | 84 | 1016.2 |
| 20260507051538 | 7 | 203 | 0.0 | 0.0 | 0.00 | 0.00 | 0.00 | 84 | 1016.0 |
| 20260507051035 | 7 | 186 | 0.0 | 0.0 | 0.00 | 0.00 | 0.00 | 85 | 1016.1 |
| 20260507050531 | 7 | 211 | 0.0 | 0.0 | 0.00 | 0.00 | 0.00 | 85 | 1016.1 |
| 20260507050028 | 7 | 209 | 0.0 | 0.0 | 0.00 | 0.00 | 0.00 | 85 | 1015.9 |
| 20260507045524 | 7 | 213 | 0.0 | 0.0 | 0.00 | 0.00 | 0.00 | 85 | 1015.9 |
| 20260507045022 | 7 | 208 | 0.0 | 0.0 | 0.00 | 0.00 | 0.00 | 85 | 1016.0 |
| 20260507044518 | 7 | 251 | 0.0 | 0.0 | 0.00 | 0.00 | 0.00 | 85 | 1015.8 |
| 20260507044015 | 7 | 270 | 0.0 | 1.6 | 0.00 | 0.00 | 0.00 | 85 | 1015.8 |
| 20260507043511 | 7 | 308 | 1.6 | 1.6 | 0.00 | 0.00 | 0.00 | 85 | 1015.7 |
| 20260507043008 | 7 | 213 | 0.0 | 0.0 | 0.00 | 0.00 | 0.00 | 86 | 1016.1 |
| 20260507042504 | 7 | 207 | 0.0 | 0.0 | 0.00 | 0.00 | 0.00 | 86 | 1016.0 |
| 20260507042000 | 7 | 214 | 0.0 | 0.0 | 0.00 | 0.00 | 0.00 | 86 | 1015.7 |
| 20260507041457 | 7 | 221 | 0.0 | 0.0 | 0.00 | 0.00 | 0.00 | 85 | 1015.9 |
| 20260507040954 | 7 | 214 | 0.0 | 0.0 | 0.00 | 0.00 | 0.00 | 85 | 1015.8 |
| 20260507040450 | 7 | 223 | 0.0 | 0.0 | 0.00 | 0.00 | 0.00 | 85 | 1015.8 |
| 20260507035945 | 7 | 228 | 0.0 | 0.0 | 0.00 | 0.00 | 0.00 | 85 | 1015.7 |
| 20260507035442 | 7 | 244 | 1.6 | 1.6 | 0.00 | 0.00 | 0.00 | 85 | 1015.5 |
| 20260507034939 | 7 | 225 | 0.0 | 1.6 | 0.00 | 0.00 | 0.00 | 85 | 1015.6 |
| 20260507034436 | 7 | 219 | 0.0 | 0.0 | 0.00 | 0.00 | 0.00 | 85 | 1015.4 |
| 20260507033934 | 7 | 224 | 0.0 | 0.0 | 0.00 | 0.00 | 0.00 | 85 | 1015.5 |
| 20260507033432 | 7 | 216 | 0.0 | 0.0 | 0.00 | 0.00 | 0.00 | 85 | 1015.5 |
| 20260507032928 | 7 | 204 | 0.0 | 0.0 | 0.00 | 0.00 | 0.00 | 84 | 1015.5 |
| 20260507032426 | 7 | 204 | 0.0 | 0.0 | 0.00 | 0.00 | 0.00 | 84 | 1015.6 |
| 20260507031921 | 7 | 204 | 0.0 | 0.0 | 0.00 | 0.00 | 0.00 | 84 | 1015.3 |
| 20260507031418 | 7 | 204 | 0.0 | 0.0 | 0.00 | 0.00 | 0.00 | 84 | 1015.5 |
| 20260507030915 | 7 | 204 | 0.0 | 0.0 | 0.00 | 0.00 | 0.00 | 84 | 1015.5 |
| 20260507030412 | 7 | 208 | 0.0 | 0.0 | 0.00 | 0.00 | 0.00 | 84 | 1015.5 |
| 20260507025909 | 7 | 208 | 0.0 | 0.0 | 0.00 | 0.00 | 0.00 | 84 | 1015.2 |
| 20260507025407 | 7 | 206 | 0.0 | 0.0 | 0.00 | 0.00 | 0.00 | 84 | 1015.6 |
| 20260507024904 | 7 | 196 | 0.0 | 0.0 | 0.00 | 0.00 | 0.00 | 83 | 1015.4 |
| 20260507024401 | 7 | 193 | 0.0 | 0.0 | 0.00 | 0.00 | 0.00 | 83 | 1015.4 |
| 20260507023857 | 7 | 196 | 0.0 | 0.0 | 0.00 | 0.00 | 0.00 | 83 | 1015.5 |
| 20260507023354 | 7 | 201 | 0.0 | 0.0 | 0.00 | 0.00 | 0.00 | 83 | 1015.6 |
| 20260507022851 | 7 | 207 | 0.0 | 0.0 | 0.00 | 0.00 | 0.00 | 83 | 1015.4 |
| 20260507022348 | 7 | 205 | 0.0 | 0.0 | 0.00 | 0.00 | 0.00 | 83 | 1015.4 |
| 20260507021844 | 7 | 210 | 0.0 | 0.0 | 0.00 | 0.00 | 0.00 | 82 | 1015.5 |
| 20260507021339 | 7 | 212 | 0.0 | 0.0 | 0.00 | 0.00 | 0.00 | 82 | 1015.6 |
| 20260507020838 | 7 | 202 | 0.0 | 0.0 | 0.00 | 0.00 | 0.00 | 82 | 1015.5 |
| 20260507020334 | 7 | 213 | 0.0 | 0.0 | 0.00 | 0.00 | 0.00 | 82 | 1015.7 |
| 20260507015831 | 7 | 217 | 0.0 | 0.0 | 0.00 | 0.00 | 0.00 | 82 | 1015.4 |
| 20260507015329 | 7 | 206 | 0.0 | 0.0 | 0.00 | 0.00 | 0.00 | 82 | 1015.4 |
| 20260507014826 | 7 | 197 | 0.0 | 0.0 | 0.00 | 0.00 | 0.00 | 82 | 1015.5 |
| 20260507014322 | 7 | 204 | 0.0 | 0.0 | 0.00 | 0.00 | 0.00 | 82 | 1015.4 |
| 20260507013818 | 7 | 253 | 1.6 | 1.6 | 0.00 | 0.00 | 0.00 | 82 | 1015.5 |